Level Island FAA Web Cam AK US FAA-ALASKA current weather conditions

sailwx.info

Wind from 126 at 9 knots

Air temperature 3.2° C
Dewpoint 1.5° C

Last reported at 2020-Jan-22 12:40 UTC.
Time now 2020-Jan-22 13:27 UTC

Location: N 56°28' W 133°05'.
View on Google Maps.

See reports from other nearby stations

  
Tides and Currents Weather Stations Pressure Air Temp Water Temp Dewpoint Dewpoint Depression Visibility Wind Speed Wind Dir Waves Ship Positions
date/time (UTC)wind fromknots sea level pressurealtimeterstation pressurevisibilityair tempwater tempwave heightnotes
2020-Jan-22 13:00 111 6 3.2
2020-Jan-22 12:40 126 9 3.2
2020-Jan-22 12:30 128 14 3.1
2020-Jan-22 12:20 130 8 3.2
2020-Jan-22 12:10 108 6 3.2
2020-Jan-22 11:50 122 11 3.2
2020-Jan-22 11:40 119 7 3.3
2020-Jan-22 11:30 100 7 3.3
2020-Jan-22 11:10 121 8 3.5
2020-Jan-22 11:00 100 6 3.4
2020-Jan-22 10:40 108 6 3.4
2020-Jan-22 10:30 114 9 3.4
2020-Jan-22 10:10 120 5 3.8
2020-Jan-22 09:50 116 4 3.8
2020-Jan-22 09:40 118 5 3.7
2020-Jan-22 09:30 106 7 3.5
2020-Jan-22 09:10 103 9 3.4
2020-Jan-22 09:00 122 7 3.2
2020-Jan-22 08:50 118 9 3.2
2020-Jan-22 08:40 123 4 3.3
2020-Jan-22 08:30 120 6 3.4
2020-Jan-22 08:20 141 9 3.3
2020-Jan-22 08:10 101 9 3.2
2020-Jan-22 07:50 116 7 3.3
2020-Jan-22 07:30 116 9 3.0
2020-Jan-22 07:20 112 5 3.0
2020-Jan-22 07:10 115 11 2.9
2020-Jan-22 06:50 103 5 2.8
2020-Jan-22 06:40 110 8 2.7
2020-Jan-22 06:30 118 12 2.6
2020-Jan-22 06:20 132 6 2.6
2020-Jan-22 06:10 127 7 2.5
2020-Jan-22 06:00 099 7 2.4
2020-Jan-22 05:50 126 12 2.3
2020-Jan-22 05:40 112 5 2.2
2020-Jan-22 05:20 121 3 2.1
2020-Jan-22 05:10 122 6 2.1
2020-Jan-22 04:50 115 6 2.0
2020-Jan-22 04:40 111 10 2.0
2020-Jan-22 04:30 114 9 2.0
2020-Jan-22 04:20 137 8 2.0
2020-Jan-22 04:10 122 8 2.0
2020-Jan-22 04:00 117 10 2.1
2020-Jan-22 03:50 115 7 2.1
2020-Jan-22 03:30 119 8 2.2
2020-Jan-22 03:20 121 12 2.3
2020-Jan-22 03:10 106 9 2.3
2020-Jan-22 02:50 130 10 2.1
2020-Jan-22 02:40 108 8 2.2
2020-Jan-22 02:30 090 9 2.3
2020-Jan-22 02:20 093 9 2.1
2020-Jan-22 02:00 109 10 1.9
2020-Jan-22 01:50 118 5 1.9
2020-Jan-22 01:40 095 8 1.9
2020-Jan-22 01:30 099 11 1.9
2020-Jan-22 01:20 114 13 1.8
2020-Jan-22 01:00 090 9 1.6
2020-Jan-22 00:50 118 10 1.6
2020-Jan-22 00:40 110 12 1.4
2020-Jan-22 00:30 099 8 1.2
2020-Jan-22 00:20 091 12 1.3
2020-Jan-22 00:10 100 8 1.2
2020-Jan-22 00:00 118 12 1.2
2020-Jan-21 23:50 111 7 1.1
2020-Jan-21 23:30 093 6 1.1
2020-Jan-21 23:20 092 8 1.1
2020-Jan-21 23:00 109 2 1.9
2020-Jan-21 22:50 104 4 2.5
2020-Jan-21 22:40 025 5 2.4
2020-Jan-21 22:30 097 6 2.2
2020-Jan-21 22:20 094 6 2.4
2020-Jan-21 22:10 100 3 2.5
2020-Jan-21 21:50 034 4 2.3
2020-Jan-21 21:30 042 6 2.2
2020-Jan-21 21:10 010 8 2.2
2020-Jan-21 21:00 008 5 2.3
2020-Jan-21 20:50 035 8 2.0
2020-Jan-21 20:40 024 4 1.9
2020-Jan-21 20:30 025 5 1.9
2020-Jan-21 20:10 024 7 2.0
2020-Jan-21 20:00 034 7 2.1
2020-Jan-21 19:50 023 3 2.1
2020-Jan-21 19:40 022 4 2.0
2020-Jan-21 19:30 047 6 1.8
2020-Jan-21 19:20 033 3 1.8
2020-Jan-21 19:00 357 5 1.9
2020-Jan-21 18:40 020 3 1.9
2020-Jan-21 18:30 031 6 1.9
2020-Jan-21 18:10 036 5 1.6
2020-Jan-21 18:00 355 2 1.4
2020-Jan-21 17:50 055 0 1.3
2020-Jan-21 17:40 042 6 1.3
2020-Jan-21 17:20 008 6 1.3
2020-Jan-21 17:10 037 9 1.3
2020-Jan-21 17:00 028 8 1.3
2020-Jan-21 16:50 023 7 1.3
2020-Jan-21 16:30 017 7 1.3
2020-Jan-21 16:10 024 4 1.2
2020-Jan-21 15:50 345 6 1.2
2020-Jan-21 15:40 028 3 1.2
2020-Jan-21 15:20 008 5 1.5
2020-Jan-21 15:10 042 2 1.6
2020-Jan-21 15:00 072 4 1.5
2020-Jan-21 14:40 070 2 1.3
2020-Jan-21 14:20 337 2 1.7
2020-Jan-21 14:10 055 4 1.7
2020-Jan-21 14:00 049 6 1.7
2020-Jan-21 13:50 020 9 1.7
2020-Jan-21 13:30 024 6 1.6
2020-Jan-21 13:20 038 9 1.7
2020-Jan-21 13:10 012 6 1.8
2020-Jan-21 12:50 034 10 1.9
2020-Jan-21 12:40 032 8 1.9
2020-Jan-21 12:30 023 7 1.7
2020-Jan-21 12:20 038 6 1.6
2020-Jan-21 12:10 046 8 2.1
2020-Jan-21 12:00 046 3 2.0
2020-Jan-21 11:40 079 7 2.0
2020-Jan-21 11:30 050 3 1.4
2020-Jan-21 11:10 052 5 1.1
2020-Jan-21 11:00 045 8 1.4
2020-Jan-21 10:40 074 8 1.9
2020-Jan-21 10:30 075 6 1.7
2020-Jan-21 10:10 063 9 1.8
2020-Jan-21 10:00 070 6 1.8
2020-Jan-21 09:50 092 6 1.7
2020-Jan-21 09:40 077 8 1.8
2020-Jan-21 09:20 060 6 2.0
2020-Jan-21 09:10 065 9 1.9
2020-Jan-21 08:50 076 10 1.7
2020-Jan-21 08:40 088 9 1.7
2020-Jan-21 08:30 087 6 1.7
2020-Jan-21 08:20 098 4 1.6
2020-Jan-21 08:00 072 6 1.5
2020-Jan-21 07:40 084 12 1.6
2020-Jan-21 07:30 112 4 1.9
2020-Jan-21 07:10 089 10 1.7
2020-Jan-21 07:00 087 5 1.6
2020-Jan-21 06:50 086 10 1.7
2020-Jan-21 06:40 089 4 1.7
2020-Jan-21 06:20 092 5 2.0
2020-Jan-21 06:00 087 5 1.9
2020-Jan-21 05:50 091 6 1.7
2020-Jan-21 05:40 095 8 1.8
2020-Jan-21 05:20 100 9 1.7
2020-Jan-21 05:00 090 8 2.1
2020-Jan-21 04:50 088 6 2.1
2020-Jan-21 04:40 090 7 1.9
2020-Jan-21 04:30 088 8 1.8
2020-Jan-21 04:20 104 7 2.0
2020-Jan-21 04:10 125 9 1.9
2020-Jan-21 04:00 122 8 1.9
2020-Jan-21 03:50 112 9 2.0
2020-Jan-21 03:40 111 7 2.3
2020-Jan-21 03:30 092 6 2.6
2020-Jan-21 03:10 122 6 2.2
2020-Jan-21 02:50 119 4 2.1
2020-Jan-21 02:40 130 9 2.0
2020-Jan-21 02:30 149 10 2.3
2020-Jan-21 02:10 121 7 2.2
2020-Jan-21 02:00 121 13 2.4
2020-Jan-21 01:50 112 6 2.4
2020-Jan-21 01:30 113 11 2.3
2020-Jan-21 01:20 124 8 2.3
2020-Jan-21 01:00 134 9 2.1
2020-Jan-21 00:50 111 9 2.2
2020-Jan-21 00:40 106 7 2.2
2020-Jan-21 00:20 119 7 2.1
2020-Jan-21 00:10 123 9 2.0
2020-Jan-20 23:50 109 7 2.2
2020-Jan-20 23:40 108 8 2.1
2020-Jan-20 23:30 107 8 2.1
2020-Jan-20 23:10 116 10 1.8
2020-Jan-20 22:50 113 8 1.6
2020-Jan-20 22:40 109 8 1.6
2020-Jan-20 22:30 118 9 1.6
2020-Jan-20 22:10 107 15 1.3
2020-Jan-20 21:50 102 10 1.1
2020-Jan-20 21:40 096 8 1.1
2020-Jan-20 21:30 125 9 1.2
2020-Jan-20 21:20 098 6 1.2
2020-Jan-20 21:10 115 11 1.0
2020-Jan-20 20:50 122 6 1.1
2020-Jan-20 20:40 114 10 1.0
2020-Jan-20 20:30 112 14 0.9
2020-Jan-20 20:20 116 9 0.9
2020-Jan-20 20:10 104 9 0.8
2020-Jan-20 19:50 105 11 0.8
2020-Jan-20 19:30 112 11 0.7
2020-Jan-20 19:20 126 11 0.8
2020-Jan-20 19:00 111 7 0.7
2020-Jan-20 18:50 104 10 0.6
2020-Jan-20 18:30 117 9 0.6
2020-Jan-20 18:10 083 8 0.6
2020-Jan-20 17:50 127 8 0.4
2020-Jan-20 17:40 132 10 0.6
2020-Jan-20 17:30 117 7 0.5
2020-Jan-20 17:10 111 7 0.5
2020-Jan-20 16:50 114 4 0.4
2020-Jan-20 16:40 096 9 0.3
2020-Jan-20 16:30 123 10 0.3
2020-Jan-20 16:20 112 9 0.2
2020-Jan-20 16:10 110 11 0.3
2020-Jan-20 16:00 122 7 0.2
2020-Jan-20 15:50 110 9 0.2
2020-Jan-20 15:40 105 12 0.2
2020-Jan-20 15:30 077 4 0.1
2020-Jan-20 15:10 120 7 0.2
2020-Jan-20 15:00 110 6 0.2
2020-Jan-20 14:50 126 5 0.2
2020-Jan-20 14:40 125 8 0.2
2020-Jan-20 14:30 124 7 0.1
2020-Jan-20 14:10 114 5 0.1
2020-Jan-20 13:50 093 10 0.4
2020-Jan-20 13:40 115 10 0.4
2020-Jan-20 13:30 115 9 0.5
2020-Jan-20 13:20 112 14 0.6
2020-Jan-20 13:10 124 13 0.5